| time (UTC) | temp C | wind direction | speed KPH | gust KPH | rain 1hr cm | rain 24hr cm | rain mn cm | humidity % | barometer mb |
| 20260506102653 | 13 | 43 | 0.0 | 0.0 | 0.00 | 0.00 | 0.00 | 98 | 1006.6 |
| 20260506102150 | 12 | 80 | 0.0 | 0.0 | 0.00 | 0.00 | 0.00 | 98 | 1006.5 |
| 20260506101647 | 12 | 82 | 0.0 | 0.0 | 0.00 | 0.00 | 0.00 | 98 | 1006.7 |
| 20260506101144 | 12 | 88 | 0.0 | 0.0 | 0.00 | 0.00 | 0.00 | 98 | 1006.4 |
| 20260506100642 | 12 | 90 | 0.0 | 0.0 | 0.00 | 0.00 | 0.00 | 98 | 1006.5 |
| 20260506100140 | 12 | 113 | 1.6 | 1.6 | 0.00 | 0.00 | 0.00 | 99 | 1006.5 |
| 20260506095638 | 12 | 70 | 0.0 | 0.0 | 0.00 | 0.00 | 0.00 | 99 | 1006.6 |
| 20260506095135 | 12 | 93 | 0.0 | 0.0 | 0.00 | 0.00 | 0.00 | 99 | 1006.5 |
| 20260506094632 | 12 | 78 | 0.0 | 0.0 | 0.00 | 0.00 | 0.00 | 99 | 1006.3 |
| 20260506094130 | 12 | 70 | 0.0 | 0.0 | 0.00 | 0.00 | 0.00 | 99 | 1006.4 |
| 20260506093628 | 12 | 87 | 0.0 | 0.0 | 0.00 | 0.00 | 0.00 | 98 | 1006.4 |
| 20260506093125 | 12 | 130 | 1.6 | 1.6 | 0.00 | 0.00 | 0.00 | 98 | 1006.4 |
| 20260506092623 | 12 | 103 | 0.0 | 0.0 | 0.00 | 0.00 | 0.00 | 98 | 1006.6 |
| 20260506092119 | 12 | 86 | 0.0 | 0.0 | 0.00 | 0.00 | 0.00 | 98 | 1006.4 |
| 20260506091618 | 12 | 56 | 0.0 | 0.0 | 0.00 | 0.00 | 0.00 | 98 | 1006.4 |
| 20260506091115 | 12 | 82 | 0.0 | 0.0 | 0.00 | 0.00 | 0.00 | 98 | 1006.4 |
| 20260506090613 | 12 | 72 | 0.0 | 0.0 | 0.00 | 0.00 | 0.00 | 97 | 1006.3 |
| 20260506090109 | 12 | 163 | 0.0 | 0.0 | 0.00 | 0.00 | 0.00 | 97 | 1006.6 |
| 20260506085606 | 12 | 187 | 0.0 | 0.0 | 0.00 | 0.00 | 0.00 | 97 | 1006.6 |
| 20260506085102 | 12 | 188 | 0.0 | 0.0 | 0.00 | 0.00 | 0.00 | 96 | 1006.6 |
| 20260506084559 | 12 | 188 | 0.0 | 0.0 | 0.00 | 0.00 | 0.00 | 96 | 1006.8 |
| 20260506084056 | 12 | 75 | 0.0 | 0.0 | 0.00 | 0.00 | 0.00 | 96 | 1006.7 |
| 20260506083553 | 12 | 88 | 0.0 | 0.0 | 0.00 | 0.00 | 0.00 | 96 | 1006.8 |
| 20260506083050 | 12 | 47 | 0.0 | 0.0 | 0.00 | 0.00 | 0.00 | 96 | 1006.6 |
| 20260506082547 | 12 | 72 | 0.0 | 0.0 | 0.00 | 0.00 | 0.00 | 96 | 1006.7 |
| 20260506082042 | 12 | 75 | 0.0 | 0.0 | 0.00 | 0.00 | 0.00 | 95 | 1006.7 |
| 20260506081541 | 12 | 109 | 0.0 | 0.0 | 0.00 | 0.00 | 0.00 | 95 | 1006.8 |
| 20260506081038 | 12 | 82 | 0.0 | 0.0 | 0.00 | 0.00 | 0.00 | 95 | 1006.6 |
| 20260506080535 | 12 | 78 | 1.6 | 1.6 | 0.00 | 0.00 | 0.00 | 94 | 1006.7 |
| 20260506073519 | 13 | 101 | 0.0 | 0.0 | 0.00 | 0.00 | 0.00 | 92 | 1006.7 |
| 20260506073016 | 13 | 246 | 0.0 | 1.6 | 0.00 | 0.00 | 0.00 | 92 | 1006.8 |
| 20260506072513 | 13 | 70 | 0.0 | 0.0 | 0.00 | 0.00 | 0.00 | 92 | 1006.7 |
| 20260506072011 | 13 | 68 | 0.0 | 0.0 | 0.00 | 0.00 | 0.00 | 91 | 1006.9 |
| 20260506071508 | 13 | 98 | 0.0 | 0.0 | 0.00 | 0.00 | 0.00 | 91 | 1006.7 |
| 20260506071005 | 13 | 76 | 0.0 | 0.0 | 0.00 | 0.00 | 0.00 | 91 | 1006.9 |
| 20260506070503 | 13 | 102 | 1.6 | 1.6 | 0.00 | 0.00 | 0.00 | 91 | 1006.8 |
| 20260506062440 | 14 | 75 | 0.0 | 0.0 | 0.00 | 0.00 | 0.00 | 87 | 1007.0 |
| 20260506061936 | 14 | 116 | 0.0 | 0.0 | 0.00 | 0.00 | 0.00 | 86 | 1006.9 |
| 20260506061432 | 15 | 120 | 0.0 | 0.0 | 0.00 | 0.00 | 0.00 | 85 | 1006.8 |
| 20260506060930 | 15 | 88 | 0.0 | 0.0 | 0.00 | 0.00 | 0.00 | 85 | 1006.7 |
| 20260506060428 | 15 | 86 | 0.0 | 0.0 | 0.00 | 0.00 | 0.00 | 84 | 1006.8 |
| 20260506051400 | 16 | 277 | 1.6 | 1.6 | 0.00 | 0.00 | 0.00 | 77 | 1007.3 |
| 20260506050857 | 16 | 230 | 1.6 | 1.6 | 0.00 | 0.00 | 0.00 | 77 | 1007.2 |
| 20260506050355 | 16 | 49 | 0.0 | 0.0 | 0.00 | 0.00 | 0.00 | 77 | 1007.2 |
| 20260506044845 | 17 | 258 | 3.2 | 3.2 | 0.00 | 0.00 | 0.00 | 76 | 1007.2 |
| 20260506044343 | 16 | 312 | 1.6 | 3.2 | 0.00 | 0.00 | 0.00 | 75 | 1007.2 |
| 20260506043840 | 16 | 236 | 3.2 | 3.2 | 0.00 | 0.00 | 0.00 | 76 | 1007.3 |
| 20260506043337 | 17 | 68 | 1.6 | 1.6 | 0.00 | 0.00 | 0.00 | 75 | 1007.3 |
| 20260506042835 | 17 | 179 | 1.6 | 1.6 | 0.00 | 0.00 | 0.00 | 76 | 1007.4 |
| 20260506042334 | 17 | 233 | 1.6 | 3.2 | 0.00 | 0.00 | 0.00 | 74 | 1007.4 |
| 20260506041833 | 17 | 111 | 1.6 | 1.6 | 0.00 | 0.00 | 0.00 | 75 | 1007.1 |
| 20260506041329 | 17 | 93 | 1.6 | 1.6 | 0.00 | 0.00 | 0.00 | 74 | 1007.1 |
| 20260506040826 | 17 | 195 | 1.6 | 1.6 | 0.00 | 0.00 | 0.00 | 74 | 1007.2 |
| 20260506040324 | 17 | 154 | 0.0 | 1.6 | 0.00 | 0.00 | 0.00 | 75 | 1007.3 |
| 20260506035820 | 17 | 51 | 0.0 | 0.0 | 0.00 | 0.05 | 0.05 | 74 | 1007.2 |
| 20260506035317 | 17 | 20 | 3.2 | 4.8 | 0.00 | 0.05 | 0.05 | 73 | 1007.2 |
| 20260506034814 | 17 | 192 | 1.6 | 1.6 | 0.00 | 0.05 | 0.05 | 73 | 1007.2 |
| 20260506034312 | 17 | 250 | 4.8 | 4.8 | 0.00 | 0.05 | 0.05 | 72 | 1007.1 |
| 20260506033809 | 17 | 244 | 0.0 | 1.6 | 0.00 | 0.05 | 0.05 | 73 | 1007.3 |
| 20260506033305 | 17 | 45 | 0.0 | 0.0 | 0.00 | 0.05 | 0.05 | 72 | 1007.3 |
| 20260506032802 | 17 | 165 | 0.0 | 1.6 | 0.00 | 0.05 | 0.05 | 72 | 1007.1 |
| 20260506032259 | 18 | 102 | 0.0 | 0.0 | 0.00 | 0.05 | 0.05 | 71 | 1007.3 |
| 20260506031755 | 18 | 258 | 3.2 | 4.8 | 0.00 | 0.05 | 0.05 | 70 | 1007.1 |
| 20260506031253 | 18 | 287 | 1.6 | 1.6 | 0.00 | 0.05 | 0.05 | 70 | 1006.9 |
| 20260506030751 | 18 | 107 | 0.0 | 0.0 | 0.00 | 0.05 | 0.05 | 70 | 1007.1 |
| 20260506030249 | 18 | 93 | 3.2 | 3.2 | 0.00 | 0.05 | 0.05 | 70 | 1007.0 |
| 20260506025745 | 18 | 185 | 1.6 | 1.6 | 0.00 | 0.05 | 0.05 | 70 | 1007.1 |
| 20260506025242 | 18 | 66 | 3.2 | 3.2 | 0.00 | 0.05 | 0.05 | 70 | 1007.0 |
| 20260506024739 | 18 | 59 | 0.0 | 0.0 | 0.00 | 0.05 | 0.05 | 70 | 1006.9 |
| 20260506024235 | 18 | 236 | 1.6 | 1.6 | 0.00 | 0.05 | 0.05 | 68 | 1007.0 |
| 20260506023731 | 18 | 161 | 1.6 | 1.6 | 0.00 | 0.05 | 0.05 | 70 | 1007.1 |
| 20260506023229 | 18 | 193 | 1.6 | 3.2 | 0.00 | 0.05 | 0.05 | 69 | 1007.1 |
| 20260506022725 | 17 | 201 | 4.8 | 8.0 | 0.00 | 0.05 | 0.05 | 70 | 1007.0 |
| 20260506022223 | 18 | 60 | 0.0 | 1.6 | 0.00 | 0.05 | 0.05 | 70 | 1007.1 |
| 20260506021721 | 17 | 161 | 1.6 | 1.6 | 0.00 | 0.05 | 0.05 | 71 | 1007.1 |
| 20260506021218 | 17 | 245 | 1.6 | 3.2 | 0.00 | 0.05 | 0.05 | 71 | 1007.0 |
| 20260506020714 | 17 | 65 | 0.0 | 1.6 | 0.00 | 0.05 | 0.05 | 71 | 1006.8 |
| 20260506020213 | 17 | 264 | 4.8 | 4.8 | 0.00 | 0.05 | 0.05 | 71 | 1006.8 |
| 20260506015710 | 17 | 110 | 0.0 | 0.0 | 0.00 | 0.05 | 0.05 | 71 | 1007.0 |
| 20260506015207 | 17 | 129 | 1.6 | 1.6 | 0.00 | 0.05 | 0.05 | 72 | 1006.8 |
| 20260506014704 | 17 | 278 | 3.2 | 3.2 | 0.00 | 0.05 | 0.05 | 70 | 1006.8 |
| 20260506014200 | 18 | 169 | 0.0 | 0.0 | 0.00 | 0.05 | 0.05 | 70 | 1006.7 |
| 20260506013658 | 17 | 145 | 0.0 | 1.6 | 0.00 | 0.05 | 0.05 | 70 | 1006.7 |
| 20260506013155 | 17 | 255 | 4.8 | 8.0 | 0.00 | 0.05 | 0.05 | 70 | 1006.7 |
| 20260506012651 | 18 | 55 | 3.2 | 3.2 | 0.00 | 0.05 | 0.05 | 70 | 1006.4 |
| 20260506012148 | 18 | 88 | 3.2 | 3.2 | 0.00 | 0.05 | 0.05 | 70 | 1006.5 |
| 20260506011645 | 18 | 92 | 0.0 | 0.0 | 0.00 | 0.05 | 0.05 | 69 | 1006.3 |
| 20260506011141 | 18 | 188 | 1.6 | 1.6 | 0.00 | 0.05 | 0.05 | 68 | 1006.3 |
| 20260506010640 | 18 | 136 | 0.0 | 1.6 | 0.00 | 0.05 | 0.05 | 68 | 1006.3 |
| 20260506010137 | 18 | 63 | 0.0 | 0.0 | 0.00 | 0.05 | 0.05 | 66 | 1006.2 |
| 20260506005634 | 19 | 95 | 0.0 | 0.0 | 0.00 | 0.05 | 0.05 | 65 | 1006.1 |
| 20260506005131 | 19 | 62 | 0.0 | 0.0 | 0.00 | 0.05 | 0.05 | 64 | 1006.1 |
| 20260506004627 | 20 | 59 | 0.0 | 0.0 | 0.00 | 0.05 | 0.05 | 61 | 1006.1 |
| 20260506004124 | 20 | 222 | 1.6 | 1.6 | 0.00 | 0.05 | 0.05 | 60 | 1005.9 |
| 20260506003620 | 20 | 80 | 1.6 | 3.2 | 0.00 | 0.05 | 0.05 | 60 | 1006.0 |
| 20260506003117 | 20 | 62 | 0.0 | 0.0 | 0.00 | 0.05 | 0.05 | 60 | 1005.9 |
| 20260506002613 | 20 | 214 | 0.0 | 0.0 | 0.00 | 0.05 | 0.05 | 61 | 1005.7 |
| 20260506002109 | 20 | 86 | 0.0 | 0.0 | 0.00 | 0.05 | 0.05 | 60 | 1005.5 |
| 20260506001605 | 20 | 142 | 0.0 | 1.6 | 0.00 | 0.05 | 0.05 | 61 | 1005.7 |
| 20260506001102 | 20 | 69 | 0.0 | 1.6 | 0.00 | 0.05 | 0.05 | 62 | 1005.6 |
| 20260506000600 | 20 | 100 | 0.0 | 0.0 | 0.00 | 0.05 | 0.05 | 62 | 1005.7 |
| 20260506000057 | 20 | 93 | 0.0 | 0.0 | 0.00 | 0.05 | 0.05 | 63 | 1005.7 |
| 20260505235555 | 20 | 160 | 1.6 | 1.6 | 0.00 | 0.05 | 0.05 | 62 | 1005.6 |
| 20260505235052 | 20 | 150 | 0.0 | 1.6 | 0.00 | 0.05 | 0.05 | 61 | 1005.5 |
| 20260505234549 | 20 | 108 | 0.0 | 1.6 | 0.00 | 0.05 | 0.05 | 62 | 1005.4 |
| 20260505234045 | 20 | 96 | 0.0 | 0.0 | 0.00 | 0.05 | 0.05 | 60 | 1005.3 |
| 20260505233543 | 20 | 90 | 0.0 | 0.0 | 0.00 | 0.05 | 0.05 | 59 | 1005.3 |
| 20260505233040 | 21 | 184 | 0.0 | 1.6 | 0.00 | 0.05 | 0.05 | 58 | 1005.2 |
| 20260505232538 | 21 | 31 | 0.0 | 0.0 | 0.00 | 0.05 | 0.05 | 58 | 1005.1 |
| 20260505232035 | 21 | 138 | 0.0 | 1.6 | 0.00 | 0.05 | 0.05 | 57 | 1005.0 |
| 20260505231532 | 21 | 172 | 1.6 | 1.6 | 0.00 | 0.05 | 0.05 | 57 | 1005.1 |
| 20260505231031 | 21 | 261 | 0.0 | 0.0 | 0.00 | 0.05 | 0.05 | 58 | 1004.9 |
| 20260505230527 | 21 | 245 | 1.6 | 1.6 | 0.00 | 0.05 | 0.05 | 58 | 1004.9 |
| 20260505230024 | 21 | 246 | 1.6 | 4.8 | 0.00 | 0.05 | 0.05 | 59 | 1004.8 |
| 20260505225521 | 21 | 89 | 0.0 | 0.0 | 0.00 | 0.05 | 0.05 | 57 | 1004.6 |
| 20260505225017 | 21 | 148 | 0.0 | 0.0 | 0.00 | 0.05 | 0.05 | 58 | 1004.8 |
| 20260505224514 | 21 | 342 | 0.0 | 0.0 | 0.00 | 0.05 | 0.05 | 59 | 1004.6 |
| 20260505224011 | 21 | 122 | 0.0 | 1.6 | 0.00 | 0.05 | 0.05 | 59 | 1004.7 |
| 20260505223508 | 22 | 196 | 1.6 | 3.2 | 0.00 | 0.05 | 0.05 | 57 | 1004.5 |
| 20260505223004 | 22 | 191 | 0.0 | 1.6 | 0.00 | 0.05 | 0.05 | 57 | 1004.5 |
| 20260505222501 | 22 | 44 | 0.0 | 1.6 | 0.00 | 0.05 | 0.05 | 57 | 1004.3 |
| 20260505221956 | 22 | 132 | 0.0 | 0.0 | 0.00 | 0.05 | 0.05 | 58 | 1004.5 |
| 20260505221454 | 22 | 85 | 0.0 | 0.0 | 0.00 | 0.05 | 0.05 | 57 | 1004.5 |
| 20260505220951 | 22 | 75 | 0.0 | 0.0 | 0.00 | 0.05 | 0.05 | 57 | 1004.7 |
| 20260505220448 | 23 | 110 | 1.6 | 1.6 | 0.00 | 0.05 | 0.05 | 54 | 1004.6 |
| 20260505215945 | 23 | 97 | 0.0 | 0.0 | 0.00 | 0.05 | 0.05 | 54 | 1004.8 |
| 20260505215444 | 24 | 268 | 4.8 | 8.0 | 0.00 | 0.05 | 0.05 | 53 | 1004.6 |
| 20260505214941 | 23 | 99 | 0.0 | 1.6 | 0.00 | 0.05 | 0.05 | 53 | 1004.6 |
| 20260505214439 | 23 | 102 | 1.6 | 3.2 | 0.00 | 0.05 | 0.05 | 52 | 1004.5 |
| 20260505213936 | 23 | 180 | 3.2 | 3.2 | 0.00 | 0.05 | 0.05 | 52 | 1004.4 |
| 20260505213433 | 23 | 130 | 0.0 | 0.0 | 0.00 | 0.05 | 0.05 | 53 | 1004.3 |
| 20260505212929 | 24 | 75 | 0.0 | 1.6 | 0.00 | 0.05 | 0.05 | 53 | 1004.3 |
| 20260505212426 | 24 | 153 | 0.0 | 1.6 | 0.00 | 0.05 | 0.05 | 52 | 1004.3 |
| 20260505211923 | 25 | 220 | 3.2 | 3.2 | 0.00 | 0.05 | 0.05 | 52 | 1004.3 |
| 20260505211420 | 25 | 272 | 4.8 | 4.8 | 0.00 | 0.05 | 0.05 | 50 | 1004.3 |
| 20260505210917 | 25 | 270 | 4.8 | 8.0 | 0.00 | 0.05 | 0.05 | 47 | 1004.1 |
| 20260505210423 | 25 | 48 | 3.2 | 3.2 | 0.00 | 0.05 | 0.05 | 51 | 1004.0 |
| 20260505205911 | 25 | 130 | 1.6 | 3.2 | 0.00 | 0.05 | 0.05 | 52 | 1004.1 |
| 20260505205409 | 25 | 258 | 8.0 | 9.7 | 0.00 | 0.05 | 0.05 | 49 | 1004.1 |
| 20260505204906 | 25 | 240 | 4.8 | 4.8 | 0.00 | 0.05 | 0.05 | 50 | 1004.3 |
| 20260505204403 | 25 | 172 | 0.0 | 0.0 | 0.00 | 0.05 | 0.05 | 52 | 1004.0 |
| 20260505203900 | 25 | 111 | 0.0 | 1.6 | 0.00 | 0.05 | 0.05 | 51 | 1004.3 |
| 20260505203357 | 25 | 205 | 8.0 | 11.3 | 0.00 | 0.05 | 0.05 | 49 | 1004.5 |
| 20260505202853 | 26 | 133 | 4.8 | 9.7 | 0.00 | 0.05 | 0.05 | 50 | 1004.5 |
| 20260505202349 | 26 | 174 | 3.2 | 3.2 | 0.00 | 0.05 | 0.05 | 48 | 1004.5 |
| 20260505201846 | 26 | 221 | 1.6 | 3.2 | 0.00 | 0.05 | 0.05 | 48 | 1004.4 |
| 20260505201344 | 26 | 268 | 4.8 | 8.0 | 0.00 | 0.05 | 0.05 | 48 | 1004.6 |
| 20260505200842 | 26 | 97 | 4.8 | 9.7 | 0.00 | 0.05 | 0.05 | 48 | 1004.7 |
| 20260505200338 | 26 | 306 | 4.8 | 8.0 | 0.00 | 0.05 | 0.05 | 48 | 1004.4 |
| 20260505195834 | 26 | 138 | 4.8 | 4.8 | 0.00 | 0.05 | 0.05 | 50 | 1004.5 |
| 20260505195331 | 26 | 199 | 1.6 | 1.6 | 0.00 | 0.05 | 0.05 | 51 | 1004.6 |
| 20260505194828 | 26 | 208 | 4.8 | 4.8 | 0.00 | 0.05 | 0.05 | 47 | 1004.6 |
| 20260505194326 | 27 | 273 | 6.4 | 9.7 | 0.00 | 0.05 | 0.05 | 46 | 1004.8 |
| 20260505193821 | 26 | 111 | 1.6 | 1.6 | 0.00 | 0.05 | 0.05 | 48 | 1004.7 |
| 20260505193319 | 26 | 120 | 4.8 | 4.8 | 0.00 | 0.05 | 0.05 | 50 | 1004.8 |
| 20260505192816 | 26 | 290 | 4.8 | 8.0 | 0.00 | 0.05 | 0.05 | 49 | 1005.0 |
| 20260505192315 | 26 | 307 | 4.8 | 8.0 | 0.00 | 0.05 | 0.05 | 49 | 1004.7 |
| 20260505191812 | 26 | 179 | 1.6 | 3.2 | 0.00 | 0.05 | 0.05 | 47 | 1005.0 |
| 20260505191310 | 27 | 255 | 4.8 | 8.0 | 0.00 | 0.05 | 0.05 | 46 | 1004.9 |
| 20260505190807 | 26 | 260 | 8.0 | 11.3 | 0.00 | 0.05 | 0.05 | 46 | 1004.7 |
| 20260505190302 | 26 | 290 | 8.0 | 11.3 | 0.00 | 0.05 | 0.05 | 45 | 1005.0 |
| 20260505185758 | 26 | 204 | 6.4 | 9.7 | 0.00 | 0.05 | 0.05 | 47 | 1005.1 |
| 20260505185254 | 26 | 160 | 3.2 | 4.8 | 0.00 | 0.05 | 0.05 | 47 | 1005.5 |
| 20260505184750 | 26 | 310 | 4.8 | 4.8 | 0.00 | 0.05 | 0.05 | 46 | 1005.3 |
| 20260505184248 | 26 | 244 | 1.6 | 1.6 | 0.00 | 0.05 | 0.05 | 48 | 1005.3 |
| 20260505183745 | 26 | 31 | 3.2 | 8.0 | 0.00 | 0.05 | 0.05 | 46 | 1005.5 |
| 20260505183242 | 26 | 183 | 1.6 | 1.6 | 0.00 | 0.05 | 0.05 | 47 | 1005.6 |
| 20260505182738 | 26 | 230 | 3.2 | 3.2 | 0.00 | 0.05 | 0.05 | 47 | 1005.6 |
| 20260505182235 | 26 | 308 | 4.8 | 9.7 | 0.00 | 0.05 | 0.05 | 49 | 1005.5 |
| 20260505181732 | 26 | 166 | 8.0 | 12.9 | 0.00 | 0.05 | 0.05 | 50 | 1005.6 |
| 20260505181229 | 26 | 330 | 4.8 | 9.7 | 0.00 | 0.05 | 0.05 | 47 | 1005.7 |
| 20260505180726 | 26 | 287 | 4.8 | 8.0 | 0.00 | 0.05 | 0.05 | 49 | 1005.5 |
| 20260505180222 | 27 | 171 | 3.2 | 3.2 | 0.00 | 0.05 | 0.05 | 45 | 1005.6 |
| 20260505175713 | 26 | 43 | 1.6 | 1.6 | 0.00 | 0.05 | 0.05 | 46 | 1005.7 |
| 20260505175209 | 26 | 240 | 1.6 | 1.6 | 0.00 | 0.05 | 0.05 | 46 | 1005.8 |
| 20260505174706 | 26 | 197 | 3.2 | 4.8 | 0.00 | 0.05 | 0.05 | 47 | 1005.7 |
| 20260505174203 | 26 | 160 | 6.4 | 8.0 | 0.00 | 0.05 | 0.05 | 46 | 1006.0 |
| 20260505173659 | 26 | 200 | 1.6 | 3.2 | 0.00 | 0.05 | 0.05 | 51 | 1005.8 |
| 20260505173156 | 26 | 221 | 8.0 | 9.7 | 0.00 | 0.05 | 0.05 | 46 | 1005.9 |
| 20260505172653 | 26 | 244 | 3.2 | 8.0 | 0.00 | 0.05 | 0.05 | 45 | 1005.9 |
| 20260505172150 | 26 | 99 | 1.6 | 1.6 | 0.00 | 0.05 | 0.05 | 49 | 1006.0 |
| 20260505171649 | 26 | 220 | 3.2 | 3.2 | 0.00 | 0.05 | 0.05 | 48 | 1006.0 |
| 20260505171146 | 26 | 197 | 1.6 | 3.2 | 0.00 | 0.05 | 0.05 | 50 | 1005.8 |
| 20260505170644 | 26 | 287 | 3.2 | 3.2 | 0.00 | 0.05 | 0.05 | 50 | 1006.1 |
| 20260505170141 | 25 | 267 | 3.2 | 3.2 | 0.00 | 0.05 | 0.05 | 46 | 1006.0 |
| 20260505165641 | 25 | 268 | 4.8 | 8.0 | 0.00 | 0.05 | 0.05 | 47 | 1006.3 |
| 20260505165137 | 26 | 81 | 8.0 | 11.3 | 0.00 | 0.05 | 0.05 | 47 | 1006.4 |
| 20260505164632 | 25 | 254 | 4.8 | 4.8 | 0.00 | 0.05 | 0.05 | 45 | 1006.5 |
| 20260505164130 | 25 | 263 | 4.8 | 8.0 | 0.00 | 0.05 | 0.05 | 51 | 1006.6 |
| 20260505163628 | 25 | 223 | 4.8 | 8.0 | 0.00 | 0.05 | 0.05 | 45 | 1006.7 |
| 20260505163126 | 25 | 218 | 4.8 | 4.8 | 0.00 | 0.05 | 0.05 | 50 | 1006.6 |
| 20260505162623 | 25 | 208 | 1.6 | 3.2 | 0.00 | 0.05 | 0.05 | 47 | 1007.0 |
| 20260505162121 | 25 | 170 | 1.6 | 3.2 | 0.00 | 0.05 | 0.05 | 49 | 1006.9 |
| 20260505161618 | 25 | 228 | 3.2 | 4.8 | 0.00 | 0.05 | 0.05 | 48 | 1007.0 |
| 20260505161115 | 24 | 243 | 4.8 | 4.8 | 0.00 | 0.05 | 0.05 | 52 | 1007.1 |
| 20260505160613 | 25 | 296 | 9.7 | 12.9 | 0.00 | 0.05 | 0.05 | 49 | 1007.1 |
| 20260505160110 | 24 | 231 | 3.2 | 4.8 | 0.00 | 0.05 | 0.05 | 50 | 1007.1 |
| 20260505153049 | 23 | 349 | 1.6 | 3.2 | 0.00 | 0.05 | 0.05 | 52 | 1007.4 |
| 20260505152546 | 23 | 357 | 1.6 | 1.6 | 0.00 | 0.05 | 0.05 | 55 | 1007.7 |
| 20260505152042 | 23 | 206 | 1.6 | 3.2 | 0.00 | 0.05 | 0.05 | 56 | 1007.5 |
| 20260505151537 | 23 | 301 | 4.8 | 8.0 | 0.00 | 0.05 | 0.05 | 55 | 1007.4 |
| 20260505151035 | 22 | 22 | 4.8 | 4.8 | 0.00 | 0.05 | 0.05 | 55 | 1007.5 |
| 20260505150531 | 22 | 234 | 6.4 | 9.7 | 0.00 | 0.05 | 0.05 | 56 | 1007.8 |
| 20260505140456 | 19 | 279 | 8.0 | 12.9 | 0.00 | 0.05 | 0.05 | 69 | 1008.1 |
| 20260505124909 | 12 | 207 | 0.0 | 1.6 | 0.00 | 0.05 | 0.05 | 97 | 1007.7 |
| 20260505124407 | 12 | 286 | 1.6 | 1.6 | 0.00 | 0.05 | 0.05 | 98 | 1007.7 |
| 20260505123902 | 12 | 234 | 1.6 | 1.6 | 0.00 | 0.05 | 0.05 | 99 | 1007.7 |
| 20260505123359 | 12 | 168 | 1.6 | 1.6 | 0.00 | 0.05 | 0.05 | 99 | 1007.3 |
| 20260505122855 | 12 | 160 | 0.0 | 0.0 | 0.00 | 0.05 | 0.05 | 99 | 1007.4 |
| 20260505122353 | 12 | 304 | 1.6 | 1.6 | 0.00 | 0.05 | 0.05 | 99 | 1007.4 |
| 20260505121849 | 11 | 43 | 0.0 | 0.0 | 0.00 | 0.05 | 0.05 | 98 | 1007.3 |
| 20260505121346 | 11 | 292 | 1.6 | 1.6 | 0.13 | 0.05 | 0.05 | 98 | 1007.7 |
| 20260505120842 | 11 | 30 | 1.6 | 1.6 | 0.13 | 0.05 | 0.05 | 97 | 1007.3 |
| 20260505120338 | 11 | 68 | 0.0 | 0.0 | 0.18 | 0.03 | 0.03 | 95 | 1007.5 |
| 20260505115837 | 12 | 358 | 1.6 | 3.2 | 0.18 | 0.03 | 0.03 | 95 | 1008.3 |
| 20260505115335 | 12 | 84 | 0.0 | 0.0 | 0.00 | 0.00 | 0.00 | 94 | 1007.8 |
| 20260505114832 | 12 | 33 | 0.0 | 0.0 | 0.00 | 0.00 | 0.00 | 91 | 1008.3 |
| 20260505114329 | 12 | 254 | 1.6 | 1.6 | 0.00 | 0.00 | 0.00 | 90 | 1008.3 |
| 20260505113825 | 12 | 96 | 0.0 | 0.0 | 0.00 | 0.00 | 0.00 | 89 | 1008.3 |
| 20260505113322 | 12 | 108 | 0.0 | 0.0 | 0.00 | 0.00 | 0.00 | 90 | 1008.3 |
| 20260505112817 | 12 | 132 | 0.0 | 0.0 | 0.00 | 0.00 | 0.00 | 90 | 1008.2 |
| 20260505112315 | 11 | 135 | 0.0 | 1.6 | 0.00 | 0.00 | 0.00 | 91 | 1008.1 |
| 20260505111810 | 11 | 141 | 1.6 | 1.6 | 0.00 | 0.00 | 0.00 | 92 | 1008.1 |
| 20260505111306 | 11 | 276 | 0.0 | 1.6 | 0.00 | 0.00 | 0.00 | 93 | 1008.1 |
| 20260505110802 | 11 | 272 | 1.6 | 1.6 | 0.00 | 0.00 | 0.00 | 93 | 1008.3 |
| 20260505110300 | 10 | 130 | 0.0 | 0.0 | 0.00 | 0.00 | 0.00 | 95 | 1008.1 |